GPS BIIR-13 (PRN 02)

Last updated on Sun Nov 16 2025 00:04:22 GMT+0000 (Coordinated Universal Time)

1 28474U 04045A 25319.40780824 -.00000081 00000+0 00000+0 0 9999 2 28474 55.2536 333.5056 0170024 308.0996 48.6728 2.00568281154138
UTC large
Height (km)
Speed (km/s)
/
Latitude / Longitude
Inclination (degrees)
Orbital Period (minutes)
Azimuth
Elevation
Range (km)
Doppler Factor

Next 0 passes for location: London (51.5072 / 0.1276)

Sorry there are no passes over London.